Location: Diguira
(13.1838°N, 4.9109°W)
Time: 13:51:56
(UTC+00:00)

H-2A R/B - Pass Details

Date: 18 September 2020
Orbit: 734 x 836 km, 98.2° (Epoch: 19 October)

Event Time Altitude Azimuth Distance (km) Brightness Sun altitude
Exits shadow 19:08:49 14° 124° (SE) 1,948 3.6 -13.1°
Maximum altitude 19:11:59 27° 75° (ENE) 1,404 2.8 -13.9°
Drops below altitude 10° 19:16:03 10° 19° (NNE) 2,245 4.3 -14.9°
Sets 19:18:39 0° 7° (N) 3,179 5.2 -15.5°
